Location: *
(33.8649°S, 62.1526°E)
Time: 03:11:17
(UTC+00:00)

CZ-2D R/B - Pass Details

Date: 17 January 2021
Orbit: 553 x 637 km, 97.9° (Epoch: 27 February)

Event Time Altitude Azimuth Distance (km) Brightness Sun altitude
Exits shadow 22:30:10 68° 212° (SSW) 685 3.7 -25.1°
Drops below altitude 10° 22:34:02 10° 194° (SSW) 2,012 6.6 -24.6°
Sets 22:36:13 0° 193° (SSW) 2,913 7.5 -24.3°
